Hourly Data Report for December 27, 2020

L'ASSOMPTION
QUEBEC
Current Station Operator: ECCC - MSC

45°48'34.000" N
73°26'05.000" W
21.00 m
7014160
71524
WEW

Download Data

Hourly Data (December 2020)
Hourly Data Report for December 27, 2020
TIME
LST
Temp Definition
°C
Dew Point Definition
°C
Rel Hum Definition
%
Precip. Amount Definition
mm

Wind Dir Definition
10's deg

Wind Spd Definition
km/h
Visibility Definition
km
Stn Press Definition
kPa
Hmdx Definition


Wind Chill Definition


Weather Definition


00:00 -7.5 -13.1 64 0.0 26 12   101.02   -13 LegendNANA
01:00 -7.7 -13.3 64 0.0 27 10   101.09   -13 LegendNANA
02:00 -8.2 -13.3 67 0.0 26 9   101.22   -13 LegendNANA
03:00 -8.7 -13.4 69 0.0 26 5   101.34   -11 LegendNANA
04:00 -9.2 -12.3 78 0.0 25 5   101.43   -12 LegendNANA
05:00 -8.4 -12.9 70 0.0 25 9   101.56   -13 LegendNANA
06:00 -8.2 -12.4 71 0.0 24 9   101.67   -13 LegendNANA
07:00 -8.1 -13.4 66 0.0 24 8   101.74   -12 LegendNANA
08:00 -8.0 -13.1 67 0.0 24 9   101.85   -13 LegendNANA
09:00 -7.5 -13.1 64 0.0 25 12   101.96   -13 LegendNANA
10:00 -6.9 -12.7 63 0.0 24 11   102.11   -12 LegendNANA
11:00 -5.8 -13.1 56 0.0 26 12   102.13   -11 LegendNANA
12:00 -4.7 -12.7 53 0.0 25 12   102.09   -9 LegendNANA
13:00 -4.4 -14.0 47 0.0 25 11   102.12   -9 LegendNANA
14:00 -3.9 -12.9 50 0.0 26 8   102.15   -7 LegendNANA
15:00 -4.6 -12.1 56 0.0 23 15   102.27   -10 LegendNANA
16:00 -5.2 -11.6 61 0.0 24 6   102.24   -8 LegendNANA
17:00 -6.2 -11.0 69 0.0 21 4   102.31   -8 LegendNANA
18:00 -6.6 -11.5 68 0.0 20 3   102.31   -8 LegendNANA
19:00 -7.8 -10.6 80 0.0   0   102.35     LegendNANA
20:00 -6.0 -9.0 79 0.0 4 3   102.36   -7 LegendNANA
21:00 -5.4 -9.8 71 0.0 4 5   102.30   -8 LegendNANA
22:00 -5.0 -8.4 77 0.0 6 5   102.25   -7 LegendNANA
23:00 -5.1 -7.8 81 0.0 7 11   102.15   -10 LegendNANA

Notes on Data Quality.

Legend

  • E = Estimated
  • M = Missing
  • NA = Not Available*
  • [empty] = Indicates an unobserved value
Date modified: